Pensacola, FL

3:23 AM CDT on July 28, 2017 (GMT -0500)
Pensacola Regional

Weather History for KPNS - September, 2012

Change the Weather History Date:

Sunday, September 2, 2012

  Actual Average Record
Temperature  
Mean Temperature 84 °F 81 °F  
Max Temperature 91 °F 89 °F 98 °F (1989)
Min Temperature 76 °F 73 °F 65 °F (1967)
Cooling Degree Days 19 16  
Month to date cooling degree days 37 32  
Year to date cooling degree days 2416 1999  
Growing Degree Days 33 (Base 50)    
Moisture  
Dew Point 75 °F    
Average Humidity 77    
Maximum Humidity 94    
Minimum Humidity 59    
Precipitation  
Precipitation 0.00 in 0.21 in 2.77 in (1985)
Month to date precipitation 0.00 0.41  
Year to date precipitation 57.39 45.18  
Sea Level Pressure  
Sea Level Pressure 30.05 in    
Wind  
Wind Speed 7 mph (WSW)    
Max Wind Speed 18 mph    
Max Gust Speed 21 mph    
Visibility 10 miles    
Events      
T = Trace of Precipitation, MM = Missing Value Source: NWS Daily Summary

Daily Weather History Graph

Daily Weather History Graph

Search for Another Location

Airport or City:

Trip Planner

Search our weather history database for the weather conditions in past years. The results will help you decide how hot, cold, wet, or windy it might be!

Date:

Astronomy

Sep. 02, 2012 Rise Set
Actual Time 6:26 AM CDT 7:09 PM CDT
Civil Twilight 6:01 AM CDT 7:34 PM CDT
Nautical Twilight 5:33 AM CDT 8:02 PM CDT
Astronomical Twilight 5:03 AM CDT 8:32 PM CDT
Moon 8:12 PM CDT (9/2) 8:20 AM CDT (9/2)
Length of Visible Light 13h 32m
Length of Day
12h 43m
Waning Gibbous, 95% of the Moon is Illuminated
Sep 2
Waning Gibbous
Sep 8
Last Quarter
Sep 15
New
Sep 22
First Quarter
Sep 29
Full

Hourly Weather History & Observations

Time (CDT) Temp. Heat Index Dew Point Humidity Pressure Visibility Wind Dir Wind Speed Gust Speed Precip Events Conditions
12:53 AM 80.1 °F 85.1 °F 75.0 °F 85% 30.10 in 10.0 mi West 5.8 mph - N/A   Clear
1:53 AM 79.0 °F - 75.0 °F 88% 30.08 in 10.0 mi WSW 4.6 mph - N/A   Clear
2:53 AM 78.8 °F - 75.2 °F 89% 30.05 in 10.0 mi Calm Calm - N/A   Clear
3:53 AM 77.0 °F - 73.9 °F 90% 30.04 in 10.0 mi Calm Calm - N/A   Clear
4:53 AM 77.0 °F - 75.0 °F 94% 30.04 in 10.0 mi WNW 3.5 mph - N/A   Clear
5:53 AM 77.0 °F - 73.9 °F 90% 30.05 in 10.0 mi NW 3.5 mph - 0.01 in   Clear
6:53 AM 78.1 °F - 75.0 °F 90% 30.07 in 9.0 mi Calm Calm - 0.01 in   Clear
7:53 AM 81.0 °F 87.9 °F 77.0 °F 88% 30.09 in 10.0 mi WNW 4.6 mph - N/A   Clear
8:30 AM 82.4 °F 89.5 °F 75.2 °F 79% 30.09 in 10.0 mi WNW 8.1 mph - 0.01 in   Partly Cloudy
8:53 AM 82.9 °F 90.8 °F 75.9 °F 79% 30.10 in 10.0 mi WNW 5.8 mph - 0.01 in   Partly Cloudy
9:53 AM 84.9 °F 93.3 °F 75.0 °F 72% 30.11 in 10.0 mi NW 5.8 mph - N/A   Scattered Clouds
10:53 AM 87.1 °F 94.5 °F 73.0 °F 63% 30.10 in 10.0 mi Variable 4.6 mph - N/A   Partly Cloudy
11:53 AM 88.0 °F 95.6 °F 73.0 °F 61% 30.09 in 10.0 mi WSW 6.9 mph - N/A   Partly Cloudy
12:53 PM 89.1 °F 100.2 °F 75.9 °F 65% 30.07 in 10.0 mi South 9.2 mph - N/A   Scattered Clouds
1:53 PM 89.1 °F 100.2 °F 75.9 °F 65% 30.05 in 10.0 mi South 11.5 mph - N/A   Clear
2:53 PM 89.1 °F 99.1 °F 75.0 °F 63% 30.02 in 10.0 mi SSW 13.8 mph 19.6 mph N/A   Partly Cloudy
3:53 PM 89.1 °F 97.0 °F 73.0 °F 59% 30.01 in 10.0 mi South 15.0 mph 20.7 mph N/A   Partly Cloudy
4:53 PM 87.1 °F 95.4 °F 73.9 °F 65% 30.00 in 10.0 mi SSW 12.7 mph - N/A   Clear
5:53 PM 86.0 °F 93.8 °F 73.9 °F 67% 29.99 in 10.0 mi SSW 8.1 mph - N/A   Clear
6:53 PM 82.9 °F 89.4 °F 73.9 °F 74% 29.99 in 10.0 mi SW 10.4 mph - N/A   Clear
7:53 PM 82.0 °F 88.6 °F 75.0 °F 79% 30.00 in 10.0 mi SW 9.2 mph - N/A   Clear
8:53 PM 81.0 °F 86.7 °F 75.0 °F 82% 30.01 in 10.0 mi SW 6.9 mph - N/A   Clear
9:53 PM 81.0 °F 86.2 °F 73.9 °F 79% 30.01 in 10.0 mi WSW 6.9 mph - N/A   Clear
10:53 PM 81.0 °F 86.7 °F 75.0 °F 82% 30.01 in 10.0 mi SW 5.8 mph - N/A   Clear
11:53 PM 80.1 °F 85.1 °F 75.0 °F 85% 30.00 in 10.0 mi SW 5.8 mph - 0.01 in   Clear